Dewpoint
36 35 31 33 37 35 33 33 34 36 38 37 37 38 38 37 36 35 35 31 32 37 40 42 45 49 52 54 54 55 56 56 56 51 47 44 42 40 39 36 34 33 34 32
33 31 33 33 34 37 35 34 34 36 38 38 37 38 37 36 35 36 35 34 35 39 40 42 44 48 52 53 54 55 54 53 52 50 47 44 42 40 39 35 30 28 27 28
31 30 32 32 32 33 33 33 33 32 36 38 37 36 37 36 35 35 35 35 36 38 40 41 42 46 48 49 49 49 48 48 46 45 44 43 42 40 38 36 32 26 23 23
32 32 30 33 32 31 29 31 30 31 34 32 36 33 35 34 33 32 32 32 36 38 39 41 43 44 45 45 47 47 47 46 45 45 44 42 40 38 38 36 32 27 22 20
32 31 30 29 30 33 30 31 32 32 33 36 35 34 34 31 32 32 32 33 37 38 39 42 43 44 45 44 43 42 42 43 43 43 41 39 37 36 35 30 28 25 21 19
34 35 34 30 30 30 33 32 32 33 33 30 34 36 31 31 31 31 32 34 36 38 41 43 45 45 43 42 40 39 39 38 38 38 37 35 32 28 25 23 21 21 21 18
32 33 35 36 33 33 32 31 23 24 25 25 32 34 35 30 27 30 30 35 36 39 43 44 44 43 42 40 39 37 36 34 33 32 30 27 24 22 20 19 17 16 15 14
26 23 32 34 31 29 31 30 23 18 18 22 35 32 30 35 29 30 34 35 38 41 43 44 44 43 41 40 38 35 33 30 28 27 25 23 21 19 17 16 15 14 12 12
27 27 34 33 32 30 29 29 29 30 31 29 31 29 26 28 30 33 35 36 39 41 43 44 44 43 41 38 35 33 30 28 25 22 19 18 17 15 14 13 13 12 10 9
31 26 29 32 37 34 32 32 27 30 23 26 26 22 23 26 28 33 34 35 39 41 42 43 44 43 41 38 35 31 28 26 22 18 15 14 13 13 12 11 9 8 8 8
35 31 30 34 34 32 34 33 32 32 27 28 24 24 26 27 28 33 35 36 39 40 41 43 43 42 40 37 33 30 27 24 21 17 15 14 13 12 11 9 9 8 8 9
36 33 27 30 38 38 37 34 34 26 31 31 23 22 27 28 28 32 35 36 39 40 41 42 42 40 39 36 31 27 26 23 19 17 16 15 13 11 9 9 9 10 9 10
36 30 28 31 35 39 36 36 35 36 36 29 22 22 31 29 29 31 35 36 38 39 41 42 40 39 38 34 30 27 25 20 18 17 15 14 12 11 10 10 11 11 11 11
38 34 31 30 34 36 33 37 40 37 32 30 25 27 28 29 29 31 35 37 38 39 40 41 39 38 37 34 31 26 22 19 17 16 15 13 12 11 11 12 12 12 12 12
40 32 36 37 36 36 36 37 37 36 36 28 26 26 29 30 30 32 36 37 38 39 40 40 39 38 36 33 29 24 19 17 16 16 15 13 12 11 12 12 12 12 12 12
37 33 37 36 36 36 34 35 36 37 36 35 34 32 29 32 32 32 36 37 38 38 39 40 39 38 35 31 26 21 18 16 16 14 13 12 10 11 11 11 10 10 11 12
33 35 36 30 35 34 32 34 35 36 36 35 32 30 30 31 32 32 35 37 38 38 39 40 39 37 33 29 24 19 16 15 13 11 10 10 9 9 9 9 9 9 10 12
34 35 36 31 27 23 27 29 36 36 36 36 35 33 30 33 35 35 35 37 38 39 39 40 38 35 31 26 21 17 15 13 12 10 9 9 8 8 8 8 9 9 10 11
35 35 34 28 27 28 27 25 27 30 30 33 35 34 33 34 34 35 38 37 38 39 40 40 37 32 27 21 17 15 13 12 11 9 7 7 7 7 8 8 8 10 11 11
37 38 35 31 26 24 26 27 27 29 27 31 31 32 33 33 29 34 39 39 39 38 36 33 29 23 19 17 14 12 11 10 9 7 7 7 8 8 8 8 10 11 11 11
36 37 34 32 31 30 31 28 30 25 26 33 33 34 34 30 33 37 38 36 34 32 30 28 24 20 18 15 13 12 9 8 8 8 8 8 9 8 9 10 11 11 11 11
34 34 34 33 31 27 31 27 24 31 34 36 36 36 36 37 37 37 35 34 33 31 28 24 21 19 18 14 12 9 7 8 9 9 8 9 8 10 11 11 11 11 10 9
34 35 35 35 32 35 34 33 35 36 35 36 36 36 36 36 36 35 33 32 30 27 22 20 18 17 15 13 11 8 7 8 8 8 7 8 10 11 12 11 11 11 9 8
36 37 34 36 34 33 33 34 36 36 36 37 37 36 36 35 34 33 32 30 28 25 22 18 16 14 11 10 9 9 9 9 8 7 8 10 11 14 12 12 11 9 10 11
35 35 34 31 32 33 33 34 36 36 36 36 36 36 35 34 33 32 31 29 28 26 21 18 16 13 9 8 9 9 9 9 8 9 11 11 13 13 12 12 10 12 13 15
31 32 33 33 32 30 32 35 36 35 35 36 36 36 36 35 34 33 31 30 29 26 23 20 17 15 10 8 9 9 10 10 10 10 11 12 15 13 12 11 12 14 15 16
Wind_Speed
9 13 19 18 16 14 16 18 18 16 17 22 30 29 28 21 24 23 22 16 12 17 15 15 12 10 10 9 11 12 17 17 19 17 17 16 14 16 17 17 18 17 16 17
14 30 15 15 19 15 20 22 31 22 20 18 22 29 33 28 24 28 25 22 19 18 18 17 15 12 12 10 9 10 12 15 18 17 16 13 15 17 17 15 16 16 16 14
25 7 23 18 20 20 24 24 27 23 20 24 18 27 33 22 28 26 23 23 24 29 26 21 19 17 15 16 17 18 17 20 21 21 20 18 18 13 14 12 12 12 15 14
21 22 21 18 27 23 26 24 22 23 17 18 8 14 24 25 29 22 24 19 26 23 19 20 24 21 17 13 15 17 19 21 20 18 20 19 17 16 9 10 10 12 13 13
10 8 25 28 31 20 25 15 15 20 22 24 26 12 16 15 25 29 31 19 27 29 29 26 25 24 18 16 17 17 19 18 18 19 19 19 18 14 12 12 12 12 12 13
13 5 5 23 21 22 20 11 13 15 15 23 24 19 12 20 28 24 22 25 27 26 23 22 22 24 20 18 19 20 22 19 20 20 19 20 19 16 15 11 11 9 8 9
7 23 7 7 5 10 20 8 9 11 12 23 12 24 21 7 14 25 26 30 29 27 27 27 27 25 21 20 20 20 22 20 20 22 20 19 18 17 14 11 8 7 6 6
9 8 22 18 26 13 17 24 11 12 18 21 20 14 12 32 14 18 31 33 30 28 26 26 26 24 22 21 19 20 21 21 20 20 18 17 17 15 12 10 8 7 6 5
7 10 3 13 16 27 16 22 30 7 6 6 14 11 1 9 15 26 30 31 29 27 26 27 25 24 23 20 21 22 21 19 18 18 17 16 15 14 12 9 8 6 6 5
4 15 18 17 23 20 18 18 15 13 6 9 10 10 11 17 23 23 29 30 26 25 25 24 24 24 20 20 21 21 20 20 18 17 16 14 14 12 10 9 8 7 6 7
12 9 4 8 12 22 22 19 11 9 15 5 10 6 7 25 26 29 29 29 29 28 26 24 23 22 21 21 21 21 20 19 17 16 15 14 12 11 9 9 7 6 6 8
15 6 9 12 9 12 18 14 13 17 15 29 8 1 2 21 23 24 24 25 25 26 24 24 24 24 23 22 21 21 19 18 17 16 14 13 11 10 9 7 6 6 7 7
11 7 6 2 5 14 12 19 25 35 11 1 6 7 2 12 18 21 26 24 24 24 25 25 25 24 23 21 21 20 19 18 17 16 14 12 10 8 6 5 5 6 7 8
19 7 11 5 2 12 10 25 28 23 4 2 3 14 8 12 19 19 25 25 26 27 28 26 24 23 22 22 21 20 19 17 16 15 13 11 8 6 5 4 5 6 8 10
8 7 11 17 20 13 13 8 10 8 2 7 14 17 16 18 22 25 23 22 24 25 26 26 25 23 22 22 20 20 19 18 16 14 11 8 6 5 3 4 5 7 9 10
10 8 16 8 11 14 13 9 9 5 3 4 4 1 9 11 12 17 27 27 25 24 23 22 24 24 24 23 22 20 19 17 15 13 10 7 5 3 3 4 7 9 11 12
9 4 8 4 3 9 1 15 10 5 5 5 7 6 11 16 20 22 24 25 26 25 26 27 26 24 23 23 23 22 20 17 15 12 9 6 4 3 3 6 8 10 12 12
12 6 5 5 4 3 4 4 17 19 12 14 10 3 6 17 13 8 4 25 24 25 25 24 22 21 21 22 21 21 19 17 14 10 8 5 3 3 5 7 8 10 11 13
7 5 3 1 3 6 2 4 3 10 14 12 21 12 19 18 12 13 11 9 16 20 20 20 20 23 23 23 22 21 18 15 12 9 7 4 3 3 6 8 10 11 11 14
8 4 1 3 1 3 0 4 3 1 5 4 1 18 27 16 17 7 7 18 22 21 22 25 23 23 25 20 21 21 17 13 11 8 5 3 2 3 7 8 11 9 11 14
6 5 10 3 2 7 4 4 5 3 1 9 5 18 25 19 6 18 16 20 20 22 25 23 22 23 22 20 20 18 14 12 9 7 5 2 2 5 6 8 8 12 15 16
11 11 6 4 1 8 2 1 3 2 3 5 9 13 22 24 25 22 21 21 22 24 21 21 23 20 17 18 19 16 14 10 8 6 3 2 4 5 7 9 13 15 15 16
10 10 10 12 11 3 1 2 2 2 6 6 18 16 26 26 23 21 20 21 19 20 19 18 21 20 16 16 17 16 11 9 7 4 2 3 5 6 8 12 14 15 15 16
7 8 6 9 11 6 6 1 2 7 11 14 18 20 22 27 21 21 20 18 18 18 19 19 20 19 15 12 13 14 10 8 6 4 2 4 6 10 12 12 12 13 16 16
6 15 9 5 2 3 3 5 12 18 20 21 17 19 22 26 20 20 19 18 17 17 17 17 18 17 15 14 13 11 9 7 5 2 3 6 8 9 12 11 11 13 12 15
8 9 13 13 13 7 7 16 19 22 21 21 25 20 15 19 20 19 18 16 17 18 17 16 16 16 14 13 12 9 7 6 4 4 6 7 8 11 10 13 13 12 16 18
Wind_Direction
216 216 219 224 234 247 275 282 282 267 248 234 240 249 255 253 244 246 249 241 195 170 152 136 126 117 120 124 132 133 126 125 109 107 104 93 98 89 81 77 75 70 68 61
250 243 213 219 228 235 246 262 268 286 280 275 251 238 240 239 238 237 238 242 167 156 150 143 135 117 103 114 116 115 110 108 104 106 107 109 106 92 93 90 82 78 72 66
219 144 204 219 227 225 234 238 248 252 293 293 283 258 248 243 242 234 228 226 177 166 159 152 138 124 111 105 107 110 109 108 108 110 107 105 101 98 100 95 93 83 75 65
232 240 242 226 232 221 241 231 258 258 267 259 277 262 247 235 233 224 226 216 180 164 151 143 133 125 119 112 112 111 109 111 115 117 122 128 131 127 124 121 112 92 77 63
212 213 217 226 234 220 244 249 270 253 261 278 263 254 258 220 231 235 229 199 172 163 154 146 134 128 122 115 109 105 104 109 118 122 124 122 119 117 114 105 101 92 71 57
238 297 248 230 239 226 246 253 286 278 255 253 240 246 244 216 224 235 213 171 159 151 144 134 126 123 121 117 111 106 104 103 107 112 116 119 118 112 103 93 88 81 73 53
223 234 225 202 238 243 224 203 232 222 220 245 240 238 244 245 265 213 170 162 152 147 144 138 135 133 133 131 123 115 111 106 104 106 108 110 107 103 102 99 93 76 55 44
217 240 200 190 212 194 205 198 209 204 215 231 215 226 228 237 283 146 150 150 145 147 146 143 141 139 141 140 132 124 119 116 110 108 106 105 105 103 100 101 92 80 59 59
226 239 210 206 202 194 205 207 216 310 301 205 184 218 289 138 132 134 141 143 149 148 149 146 144 147 149 146 140 134 127 123 119 115 111 108 107 107 105 98 85 73 48 38
229 266 226 265 209 205 205 167 181 215 255 204 193 173 181 168 157 147 149 152 151 149 148 148 148 150 150 146 139 133 132 131 127 121 116 113 111 107 102 89 75 57 41 26
187 228 190 197 203 180 200 183 191 215 230 267 153 206 232 174 166 164 163 160 155 155 153 150 149 148 147 143 140 138 136 132 128 124 121 115 107 101 95 82 67 51 34 16
198 239 247 220 155 205 195 189 167 196 200 221 127 59 68 169 173 164 159 157 154 153 150 147 148 147 149 147 144 144 139 135 134 130 122 113 106 97 85 73 53 38 18 2
172 236 279 132 160 176 191 206 200 219 281 22 117 157 122 129 165 160 155 154 150 148 147 147 148 151 151 149 148 146 142 139 137 131 123 113 103 92 79 61 40 22 2 347
162 225 240 258 36 145 179 201 205 206 181 125 142 134 144 153 153 153 156 157 155 157 156 153 153 154 155 154 152 147 143 139 136 130 124 116 107 96 81 55 24 4 346 336
200 275 273 267 245 197 187 177 153 179 218 81 157 143 174 169 161 162 156 150 152 159 159 159 158 157 157 154 148 144 142 138 134 128 124 120 114 97 72 33 3 342 334 328
196 280 307 356 152 151 174 206 227 196 210 284 201 30 198 170 145 153 161 159 161 163 160 157 157 159 160 154 149 144 143 140 133 133 131 127 112 85 40 1 347 339 334 330
205 259 340 30 251 117 74 235 229 231 232 175 203 157 143 166 172 171 167 165 164 162 161 163 164 162 157 151 145 145 142 136 135 134 133 126 106 65 10 354 347 337 332 329
203 251 305 329 24 155 244 154 209 206 224 217 245 139 161 146 105 93 186 168 166 162 159 157 155 149 143 136 135 134 135 137 136 137 137 125 97 31 356 345 334 330 325 325
202 194 305 293 291 296 330 19 84 191 233 211 217 207 138 132 94 48 33 146 159 154 146 142 138 134 130 132 133 133 134 134 136 139 134 115 72 3 335 330 327 320 318 326
175 194 148 308 219 187 200 324 333 353 232 16 123 181 160 155 169 156 75 96 99 102 115 119 117 118 122 128 130 131 137 137 140 138 127 96 43 335 325 322 316 317 328 322
155 157 189 258 341 288 252 321 337 154 249 330 281 182 163 170 165 141 110 88 91 102 108 107 111 120 128 130 130 132 135 139 136 125 108 71 350 324 314 319 324 329 329 324
177 181 183 170 219 267 160 99 183 191 27 77 91 123 108 110 111 112 108 108 109 110 109 111 115 120 126 128 127 133 137 138 127 117 102 6 336 324 329 339 338 334 326 322
195 189 178 191 211 242 34 136 141 165 123 112 115 113 117 118 118 117 117 116 114 114 114 112 118 118 122 131 135 136 141 133 123 107 65 352 334 343 356 347 335 330 330 331
218 196 193 173 226 206 169 130 87 130 124 122 123 123 123 122 121 119 118 121 122 123 125 125 125 125 123 126 130 130 132 123 115 105 26 352 2 358 352 341 336 334 334 333
190 172 204 235 215 144 196 191 140 121 118 114 110 122 126 124 126 130 132 132 132 132 133 135 138 137 132 125 124 126 123 123 118 97 24 12 2 348 335 338 335 334 330 330
194 180 186 219 198 182 185 163 143 131 129 128 126 119 116 127 129 131 133 137 137 139 141 138 139 139 140 134 131 129 125 124 119 53 16 354 336 334 340 337 332 339 332 328